Wetbulb
69.87 72.29 77.02 77.24 76.78 77.26 77.29 77.25 77.39 77.43 77.32 77.32 77.19 76.88 76.69 76.42 76.71 76.64 76.94 76.46 76.08 76.04 76.37 75.56 74.46 74.02 74.82 75.48 75.09 75.34 75.76 76.18 76.52 76.53 76.45 76.47 76.52 76.47 76.51 76.34 75.82 74.39 76.01
71.43 73.85 77.25 77.65 76.81 77.30 76.89 77.24 77.09 77.43 77.08 77.36 76.85 76.63 76.40 76.76 76.84 77.14 76.68 76.85 76.06 76.43 76.48 75.99 75.09 74.90 74.49 75.09 75.39 75.75 75.85 75.87 75.98 75.95 75.99 75.81 75.92 76.48 76.11 76.23 76.15 74.86 75.78
72.50 74.25 75.82 77.26 77.06 77.12 77.14 77.32 77.05 77.51 77.27 77.38 77.27 77.05 76.79 76.87 77.01 76.86 76.44 76.51 76.62 76.62 76.44 76.19 75.62 75.04 75.75 75.23 75.20 75.26 75.47 75.52 75.48 75.76 75.66 72.88 73.56 75.98 76.25 76.25 76.09 75.72 75.64
73.59 74.06 75.64 77.21 77.46 76.86 77.21 77.05 77.12 76.80 76.86 76.94 77.21 77.02 76.96 76.88 76.88 76.66 76.61 76.33 76.41 76.41 76.29 76.29 75.95 75.16 75.09 74.94 74.86 74.93 75.12 75.75 75.31 74.67 70.95 71.84 73.11 76.33 76.21 76.18 75.81 75.53 75.31
73.49 74.02 75.54 77.60 77.64 76.80 77.02 77.01 77.48 77.14 76.62 77.04 76.88 77.23 76.93 77.24 76.79 76.66 76.63 76.58 76.35 76.06 75.54 75.69 75.48 75.43 74.74 74.98 75.01 74.98 74.99 75.14 75.01 72.30 70.45 70.72 72.18 75.15 75.90 75.54 75.40 75.28 75.24
73.88 74.03 76.71 76.97 77.15 76.70 76.84 77.04 77.54 76.66 76.69 76.86 77.68 77.11 77.04 76.88 77.05 76.86 76.67 76.69 76.58 76.12 76.01 75.63 75.31 75.03 74.88 74.74 74.52 74.80 75.37 75.57 73.84 70.56 71.55 72.95 71.74 75.62 75.77 75.53 75.44 75.11 75.23
72.90 74.64 75.18 77.73 77.47 77.31 76.70 76.84 76.81 76.58 76.98 77.12 77.63 76.98 77.24 76.94 77.01 77.05 77.05 76.89 76.67 76.53 76.22 76.00 75.86 75.12 74.89 74.77 74.96 75.40 75.52 74.48 71.74 71.75 71.70 72.41 73.69 76.04 75.14 75.46 75.52 75.24 75.06
73.69 74.89 75.24 77.19 77.08 77.23 76.61 76.74 76.49 76.65 76.97 76.85 77.13 77.47 77.07 77.11 77.03 77.17 76.98 76.82 76.60 76.37 76.30 75.90 75.73 75.01 74.82 75.12 75.10 75.57 75.65 74.89 72.94 71.91 72.42 72.54 74.94 75.31 74.62 75.43 75.21 75.26 75.09
74.48 74.32 74.66 75.17 75.31 76.83 77.06 76.57 76.58 76.76 76.93 76.85 77.02 77.21 77.06 76.96 76.95 76.97 76.93 76.74 76.54 76.35 75.96 76.09 75.43 75.35 74.93 74.78 74.81 75.32 75.90 74.85 71.27 72.05 73.00 72.70 75.55 74.51 74.67 75.36 75.35 75.01 74.86
73.71 74.14 73.72 73.61 73.29 73.62 74.72 76.58 76.78 76.85 76.99 76.80 76.62 76.62 76.61 76.56 76.71 76.54 77.37 77.68 76.52 76.18 75.90 75.63 75.88 76.01 75.73 75.48 75.32 75.86 75.41 75.00 71.58 72.26 72.68 73.02 75.41 74.89 74.30 74.98 75.05 74.85 74.67
73.12 72.98 72.44 72.48 72.91 73.16 73.83 74.89 76.57 77.00 76.97 76.79 76.34 76.65 74.19 71.57 72.75 74.24 75.69 76.79 75.79 75.98 76.07 76.31 75.97 76.20 76.34 76.32 76.09 76.31 75.49 70.94 71.18 71.98 72.40 75.09 75.66 75.27 75.02 74.78 74.97 74.88 74.43
70.95 72.71 71.86 72.15 72.35 72.84 74.82 73.33 73.41 74.57 74.23 73.70 72.16 70.12 70.26 70.00 71.51 74.02 74.87 76.15 75.54 74.98 75.99 73.44 75.07 75.27 74.57 71.94 72.23 75.11 70.58 71.11 71.50 71.86 72.47 75.49 75.81 74.68 75.23 75.43 74.77 74.50 74.58
70.95 72.46 71.90 71.58 71.72 72.23 72.82 72.26 72.56 73.33 73.41 72.98 68.76 68.48 69.03 69.89 70.66 71.52 71.94 73.03 71.70 73.23 70.74 70.28 70.55 71.31 71.29 71.91 71.88 72.16 70.91 71.00 70.95 71.74 73.62 75.84 75.76 74.32 74.64 74.39 74.88 74.75 74.59
70.60 71.58 71.70 71.47 71.13 70.92 71.28 71.88 72.00 72.34 72.33 71.70 70.13 67.30 67.93 69.53 70.35 70.78 70.47 70.71 71.49 70.22 70.02 69.69 70.23 71.39 69.77 70.34 70.61 70.82 71.25 70.68 69.97 71.28 73.51 75.51 75.58 74.60 73.33 74.27 74.75 74.51 74.13
69.73 71.02 71.12 70.75 70.62 70.27 70.58 70.91 71.27 71.38 71.71 71.50 68.96 67.30 68.22 68.79 69.79 70.54 70.92 71.06 70.96 71.07 70.04 70.41 69.79 70.09 69.22 67.66 68.80 70.71 70.04 69.43 70.80 72.14 72.65 75.55 75.51 75.48 73.71 72.86 72.94 73.41 73.50
70.01 70.22 70.45 69.99 70.54 69.79 69.59 69.08 70.11 70.53 71.01 71.45 70.77 68.50 69.45 69.43 70.47 70.43 70.60 69.87 70.13 70.38 70.02 69.83 70.22 69.81 68.18 67.62 67.20 70.29 68.31 69.69 70.89 72.18 72.46 73.63 76.06 76.06 75.15 74.07 73.26 72.83 73.01
69.30 69.82 69.09 69.40 70.23 69.31 69.38 68.33 69.26 70.12 70.58 70.84 71.43 69.96 69.76 69.70 71.10 71.28 70.60 70.47 69.91 70.27 70.18 68.81 67.95 68.64 66.74 66.78 66.73 67.41 67.68 68.40 69.97 71.42 71.93 71.65 74.15 75.45 75.06 74.86 74.66 74.18 74.38
68.77 68.36 68.80 70.79 70.28 69.43 68.89 67.98 68.71 69.25 69.73 70.26 71.22 71.42 70.83 70.66 71.75 71.33 71.13 71.09 70.57 70.96 70.85 70.91 69.58 66.92 66.81 65.87 65.25 65.96 66.31 67.23 68.49 69.93 70.38 70.66 72.18 73.50 75.36 75.54 75.23 74.95 74.77
68.03 67.91 67.81 69.61 69.75 69.30 69.06 68.82 69.59 69.53 69.21 70.28 71.63 71.87 71.49 71.92 72.71 71.37 71.41 71.67 71.39 70.62 70.34 71.48 69.68 67.78 68.09 66.96 65.42 64.68 65.54 66.31 66.79 69.16 68.86 69.77 70.66 71.31 72.30 74.54 75.24 75.17 74.85
67.38 67.57 68.18 69.36 69.82 69.07 69.65 68.82 69.20 69.39 70.04 70.17 70.86 71.48 72.14 72.94 73.11 71.03 70.85 70.94 71.05 70.91 69.90 69.46 68.84 66.98 66.44 66.18 66.31 64.84 64.55 66.19 67.00 67.39 67.55 69.07 69.22 70.19 70.46 71.14 71.27 71.92 74.11
67.35 66.57 67.78 68.51 69.44 69.31 68.99 67.75 67.23 67.13 67.97 69.53 70.42 71.48 71.57 72.58 73.31 71.84 70.95 70.93 71.60 69.86 70.19 68.18 67.62 65.24 63.54 63.12 62.69 61.62 61.62 63.28 65.27 66.74 67.27 67.75 68.38 68.28 68.59 69.95 70.34 70.22 70.95
67.62 66.67 67.79 68.43 69.04 69.94 69.96 69.97 67.72 67.12 67.82 69.07 69.55 70.71 71.43 72.07 72.95 72.53 71.75 71.40 71.38 70.57 69.88 69.55 67.81 66.50 63.68 63.11 61.57 58.51 57.36 59.56 62.63 64.29 66.73 68.20 67.22 67.90 68.29 69.15 69.28 69.14 69.85
67.58 67.55 67.63 68.14 68.78 70.27 70.12 68.66 69.12 69.04 68.20 68.12 68.18 69.97 71.11 72.19 73.05 72.54 71.96 71.08 71.33 70.53 70.09 69.44 68.78 66.27 61.25 63.76 64.28 61.04 56.84 55.69 58.54 61.94 63.59 66.26 66.86 66.29 66.70 67.74 68.15 68.75 69.40
67.63 68.73 68.49 68.32 68.62 70.21 69.76 69.15 68.32 67.74 66.54 66.50 67.56 68.40 70.93 72.25 72.55 73.21 72.25 71.44 71.36 70.61 69.19 70.03 69.92 68.01 61.88 62.23 62.46 66.59 63.35 60.42 56.94 58.07 60.53 62.29 64.15 65.58 65.44 66.87 67.80 68.33 69.03
68.84 68.67 68.84 68.65 68.37 69.77 69.67 69.69 68.87 66.86 66.56 68.18 67.73 67.70 70.21 71.45 72.51 73.26 72.47 71.74 71.71 71.40 70.30 70.36 69.74 68.75 62.00 61.62 60.49 63.26 62.72 63.15 59.77 57.24 55.81 59.53 62.50 63.03 63.29 65.59 67.89 67.76 67.95
69.13 68.96 69.02 68.45 68.37 68.90 69.44 69.32 68.60 67.96 67.54 67.73 67.55 67.00 68.04 70.34 71.55 72.39 72.80 71.78 71.56 71.66 71.12 70.27 70.40 69.37 67.41 64.17 62.15 62.63 61.68 61.46 60.85 59.35 58.27 58.16 59.39 61.24 62.50 65.03 66.70 68.06 67.61
MSLP
1014.68 1014.30 1014.44 1014.50 1014.75 1014.93 1015.03 1015.08 1015.22 1015.34 1015.46 1015.54 1015.64 1015.79 1015.94 1016.18 1016.26 1016.35 1016.35 1016.46 1016.61 1016.75 1016.82 1016.85 1016.96 1016.99 1017.01 1017.00 1016.98 1016.96 1017.06 1017.13 1017.21 1017.31 1017.36 1017.44 1017.61 1017.59 1017.68 1017.79 1018.04 1018.10 1018.02
1014.43 1014.52 1014.61 1014.66 1014.94 1015.12 1015.32 1015.40 1015.63 1015.72 1015.78 1015.83 1016.03 1016.15 1016.16 1016.28 1016.33 1016.42 1016.54 1016.71 1016.88 1016.93 1016.96 1017.06 1017.19 1017.34 1017.45 1017.40 1017.35 1017.30 1017.35 1017.45 1017.59 1017.70 1017.81 1017.92 1017.91 1017.89 1018.03 1018.21 1018.29 1018.30 1018.37
1014.56 1014.53 1014.75 1014.89 1015.13 1015.32 1015.49 1015.64 1015.80 1015.82 1015.92 1016.02 1016.22 1016.26 1016.34 1016.36 1016.44 1016.68 1016.82 1016.98 1017.01 1017.06 1017.08 1017.26 1017.38 1017.53 1017.58 1017.64 1017.62 1017.66 1017.71 1017.78 1017.94 1018.11 1018.22 1018.16 1018.22 1018.25 1018.31 1018.39 1018.49 1018.67 1018.78
1014.44 1014.70 1014.88 1015.07 1015.29 1015.45 1015.66 1015.84 1015.96 1016.08 1016.20 1016.31 1016.36 1016.35 1016.43 1016.48 1016.66 1016.87 1017.00 1017.15 1017.24 1017.24 1017.34 1017.47 1017.62 1017.74 1017.86 1017.99 1017.98 1017.97 1018.02 1018.02 1018.19 1018.46 1018.55 1018.46 1018.38 1018.57 1018.63 1018.72 1018.84 1018.97 1019.13
1014.68 1014.88 1015.04 1015.23 1015.48 1015.70 1015.87 1016.05 1016.16 1016.36 1016.49 1016.55 1016.58 1016.55 1016.55 1016.73 1016.87 1017.03 1017.17 1017.34 1017.50 1017.49 1017.58 1017.70 1017.96 1017.89 1018.02 1018.20 1018.17 1018.18 1018.18 1018.15 1018.29 1018.69 1018.82 1018.76 1018.77 1018.85 1018.98 1019.12 1019.20 1019.25 1019.44
1014.86 1015.06 1015.16 1015.36 1015.68 1015.91 1016.09 1016.27 1016.40 1016.55 1016.70 1016.76 1016.78 1016.86 1016.93 1017.00 1017.10 1017.26 1017.44 1017.52 1017.60 1017.76 1017.87 1017.94 1018.12 1018.13 1018.28 1018.26 1018.16 1018.09 1018.06 1018.24 1018.66 1019.06 1019.16 1019.12 1019.18 1019.15 1019.32 1019.40 1019.51 1019.58 1019.73
1015.06 1015.16 1015.33 1015.56 1015.84 1016.08 1016.27 1016.51 1016.68 1016.83 1016.97 1016.95 1017.07 1017.21 1017.19 1017.29 1017.34 1017.48 1017.64 1017.70 1017.81 1017.96 1018.11 1018.13 1018.24 1018.22 1018.38 1018.35 1018.35 1018.34 1018.44 1018.71 1018.98 1019.29 1019.46 1019.50 1019.46 1019.48 1019.60 1019.74 1019.88 1019.97 1020.04
1015.07 1015.24 1015.46 1015.73 1016.01 1016.25 1016.46 1016.68 1016.88 1017.04 1017.20 1017.31 1017.32 1017.46 1017.49 1017.58 1017.70 1017.81 1017.87 1017.85 1017.90 1018.06 1018.27 1018.30 1018.35 1018.46 1018.59 1018.66 1018.64 1018.64 1018.64 1018.94 1019.32 1019.47 1019.59 1019.68 1019.70 1019.80 1019.94 1020.07 1020.23 1020.30 1020.40
1015.17 1015.39 1015.65 1015.89 1016.17 1016.39 1016.56 1016.84 1017.08 1017.27 1017.39 1017.50 1017.58 1017.59 1017.74 1017.80 1017.93 1018.08 1018.00 1017.98 1018.05 1018.18 1018.26 1018.38 1018.34 1018.58 1018.72 1018.89 1018.80 1018.76 1018.99 1019.33 1019.66 1019.78 1019.84 1019.95 1019.96 1020.02 1020.27 1020.34 1020.46 1020.60 1020.75
1015.46 1015.54 1015.86 1016.09 1016.34 1016.54 1016.77 1016.97 1017.19 1017.41 1017.49 1017.60 1017.78 1017.76 1017.94 1017.96 1018.08 1018.30 1018.21 1018.10 1018.17 1018.29 1018.35 1018.55 1018.63 1018.63 1018.74 1018.95 1019.03 1019.11 1019.37 1019.64 1020.00 1020.13 1020.33 1020.39 1020.26 1020.33 1020.48 1020.68 1020.76 1020.95 1021.05
1015.92 1016.06 1016.05 1016.27 1016.52 1016.77 1017.01 1017.11 1017.23 1017.44 1017.58 1017.74 1017.88 1018.08 1018.25 1018.38 1018.51 1018.56 1018.42 1018.30 1018.34 1018.38 1018.48 1018.65 1018.86 1018.86 1018.83 1019.01 1019.12 1019.27 1019.60 1020.00 1020.24 1020.53 1020.66 1020.56 1020.59 1020.63 1020.82 1020.95 1021.09 1021.22 1021.39
1015.95 1016.30 1016.36 1016.40 1016.72 1016.94 1016.98 1017.15 1017.46 1017.63 1017.82 1018.08 1018.26 1018.45 1018.57 1018.64 1018.64 1018.68 1018.70 1018.51 1018.48 1018.51 1018.63 1018.89 1018.92 1018.94 1019.08 1019.18 1019.36 1019.47 1019.86 1020.12 1020.37 1020.61 1020.73 1020.70 1020.79 1020.92 1021.08 1021.15 1021.28 1021.38 1021.47
1015.72 1016.27 1016.40 1016.47 1016.82 1016.93 1017.07 1017.27 1017.66 1017.82 1018.06 1018.31 1018.56 1018.58 1018.72 1018.78 1018.78 1018.73 1018.88 1018.75 1018.73 1018.72 1018.84 1019.06 1019.24 1019.26 1019.23 1019.30 1019.45 1019.65 1019.82 1020.26 1020.48 1020.67 1020.84 1020.90 1021.05 1021.16 1021.23 1021.35 1021.51 1021.63 1021.76
1015.64 1016.03 1016.24 1016.40 1016.82 1016.97 1017.16 1017.40 1017.66 1017.88 1018.20 1018.45 1018.64 1018.76 1018.91 1018.92 1018.87 1018.80 1019.03 1018.99 1018.91 1019.06 1019.12 1019.25 1019.45 1019.28 1019.30 1019.32 1019.51 1019.66 1019.84 1020.20 1020.64 1020.88 1021.03 1021.18 1021.28 1021.32 1021.44 1021.52 1021.64 1021.70 1021.74
1015.38 1015.75 1016.04 1016.27 1016.74 1016.87 1017.11 1017.53 1017.74 1017.91 1018.14 1018.39 1018.65 1018.83 1018.95 1019.06 1019.04 1018.83 1018.91 1018.90 1018.88 1019.04 1019.17 1019.33 1019.75 1019.53 1019.40 1019.38 1019.37 1019.48 1019.98 1020.35 1020.66 1020.90 1021.17 1021.19 1021.35 1021.43 1021.68 1021.75 1021.75 1021.76 1021.86
1014.95 1015.34 1015.76 1016.14 1016.31 1016.78 1016.97 1017.41 1017.74 1017.83 1018.04 1018.24 1018.52 1018.74 1018.91 1018.97 1018.83 1018.80 1018.92 1018.92 1018.86 1019.00 1019.30 1019.55 1019.69 1019.57 1019.28 1019.38 1019.54 1019.59 1020.08 1020.26 1020.72 1021.04 1021.27 1021.24 1021.30 1021.53 1021.69 1021.91 1021.91 1022.03 1022.17
1014.28 1014.89 1015.40 1015.80 1016.02 1016.66 1016.98 1017.20 1017.56 1017.67 1017.84 1018.01 1018.18 1018.53 1018.77 1018.76 1018.56 1018.65 1018.93 1018.84 1018.89 1019.03 1019.27 1019.63 1019.75 1019.82 1019.70 1019.66 1019.92 1020.00 1020.16 1020.56 1020.85 1021.00 1021.24 1021.50 1021.49 1021.70 1021.79 1021.87 1021.85 1022.04 1022.21
1013.77 1014.42 1015.02 1015.45 1015.90 1016.33 1016.81 1017.07 1017.24 1017.49 1017.65 1017.72 1017.90 1018.16 1018.50 1018.64 1018.58 1018.71 1018.84 1018.96 1019.08 1019.04 1019.26 1019.28 1019.75 1020.14 1020.23 1020.10 1020.16 1020.38 1020.55 1020.74 1020.93 1021.16 1021.39 1021.61 1021.64 1021.63 1021.70 1021.70 1021.81 1021.95 1022.03
1013.20 1013.84 1014.64 1015.11 1015.55 1016.03 1016.38 1016.76 1017.01 1017.12 1017.37 1017.44 1017.66 1017.96 1018.31 1018.50 1018.50 1018.64 1018.75 1018.97 1019.18 1019.30 1019.38 1019.56 1019.69 1019.87 1019.90 1020.21 1020.27 1020.65 1020.94 1021.07 1021.09 1021.16 1021.51 1021.68 1021.81 1021.78 1021.78 1021.72 1021.78 1021.97 1022.07
1012.86 1013.38 1014.12 1014.76 1015.26 1015.75 1016.20 1016.71 1017.02 1017.18 1017.26 1017.27 1017.45 1017.72 1018.07 1018.31 1018.34 1018.66 1018.81 1019.00 1019.19 1019.42 1019.67 1019.82 1019.96 1019.96 1020.11 1020.40 1020.60 1021.01 1021.26 1021.25 1021.32 1021.39 1021.45 1021.72 1021.84 1021.86 1021.89 1021.93 1022.02 1021.94 1022.08
1012.56 1013.07 1013.66 1014.34 1014.89 1015.53 1016.17 1016.77 1017.25 1017.36 1017.33 1017.41 1017.37 1017.50 1017.88 1018.17 1018.26 1018.47 1018.76 1019.02 1019.27 1019.48 1019.64 1019.84 1020.13 1020.23 1020.48 1020.71 1021.23 1021.57 1021.64 1021.61 1021.61 1021.78 1021.80 1021.72 1021.83 1021.90 1022.06 1022.02 1022.10 1022.07 1022.18
1011.77 1012.50 1013.13 1013.68 1014.34 1015.06 1015.62 1016.01 1016.35 1016.59 1017.04 1017.03 1017.07 1017.36 1017.67 1017.99 1018.23 1018.25 1018.56 1019.06 1019.10 1019.52 1019.62 1019.87 1020.10 1020.50 1020.68 1020.82 1021.46 1022.03 1022.37 1022.14 1021.90 1021.96 1022.04 1021.90 1021.93 1021.98 1022.08 1021.98 1022.01 1022.09 1022.03
1010.92 1011.62 1012.36 1013.00 1013.65 1014.35 1015.04 1015.73 1016.26 1016.52 1016.84 1017.24 1017.30 1017.41 1017.62 1017.74 1017.91 1018.16 1018.32 1018.76 1018.99 1019.10 1019.48 1019.80 1020.08 1020.31 1020.83 1021.06 1021.04 1021.46 1022.58 1022.62 1022.46 1022.15 1022.14 1022.22 1022.25 1022.30 1022.27 1022.19 1022.08 1022.06 1022.17
1010.01 1010.87 1011.66 1012.44 1013.16 1013.88 1014.63 1015.19 1015.68 1016.02 1016.48 1016.67 1017.03 1017.24 1017.38 1017.50 1017.67 1017.90 1018.17 1018.54 1018.78 1019.04 1019.42 1019.66 1019.90 1020.29 1020.65 1021.14 1021.26 1021.29 1021.39 1021.74 1022.56 1023.02 1022.44 1022.23 1022.29 1022.37 1022.32 1022.28 1022.12 1022.08 1022.15
1009.31 1010.12 1010.94 1011.80 1012.61 1013.28 1014.03 1014.47 1015.13 1015.71 1015.98 1016.46 1016.79 1017.15 1017.39 1017.41 1017.46 1017.58 1017.96 1018.30 1018.61 1018.87 1019.27 1019.48 1019.86 1020.25 1020.52 1020.92 1021.18 1021.36 1021.58 1021.86 1022.08 1022.74 1023.04 1022.59 1022.42 1022.12 1022.04 1022.08 1021.97 1022.03 1022.02
1008.42 1009.48 1010.32 1011.19 1011.92 1012.65 1013.38 1014.01 1014.49 1015.11 1015.68 1016.27 1016.68 1017.10 1017.35 1017.43 1017.50 1017.40 1017.67 1018.16 1018.41 1018.64 1019.15 1019.38 1019.70 1020.13 1020.48 1020.67 1020.78 1020.98 1021.24 1021.74 1022.10 1022.37 1022.76 1022.69 1022.53 1022.04 1021.75 1021.78 1021.86 1021.85 1021.88
Wind_Speed
3 7 15 18 18 17 18 18 17 18 17 17 17 18 17 18 17 17 16 15 14 13 11 12 11 11 10 11 12 12 12 13 14 13 13 13 12 14 14 14 14 10 15
7 6 15 16 17 17 17 17 17 16 17 17 17 17 17 18 17 17 15 15 13 12 12 11 12 11 11 11 12 13 13 13 13 12 11 10 11 14 14 14 14 12 15
9 8 12 16 16 17 16 16 16 16 16 15 15 15 15 16 16 16 15 12 12 11 12 11 12 10 10 11 12 13 13 13 13 13 12 5 6 12 14 14 15 14 14
10 7 9 15 15 17 16 16 15 16 15 14 14 14 14 14 15 15 14 12 11 9 10 11 11 11 11 11 12 11 12 14 13 11 4 5 8 14 14 14 14 14 13
8 7 11 16 15 17 16 15 14 16 14 14 14 13 13 15 14 14 13 12 10 7 8 9 9 10 10 11 11 10 9 9 13 8 5 5 5 11 14 14 13 13 13
10 7 15 17 17 16 16 14 15 14 14 12 14 13 14 14 14 13 13 12 10 9 8 8 9 8 9 10 9 8 9 14 13 6 4 6 5 13 13 12 13 13 13
8 8 11 15 15 15 15 14 13 14 13 11 14 13 13 13 13 13 12 12 11 10 9 9 10 8 9 7 8 11 14 14 7 5 5 4 5 13 12 12 13 12 12
10 8 10 16 15 14 14 14 13 13 12 11 11 12 11 11 11 12 12 11 10 9 10 10 10 9 8 8 7 6 14 14 8 5 5 4 8 11 12 12 12 12 11
9 8 7 8 12 14 14 13 13 13 12 11 10 11 10 10 9 10 11 10 9 9 8 9 10 11 9 7 7 5 14 13 5 3 5 3 9 12 11 11 12 11 11
7 7 6 6 6 6 6 12 12 12 11 11 10 10 8 7 8 9 6 7 8 8 6 7 9 9 8 8 7 10 13 13 5 4 3 1 9 12 12 10 10 11 10
7 5 5 6 6 5 4 7 10 11 11 10 9 8 6 2 4 3 4 6 6 6 5 6 7 6 7 8 9 11 11 3 4 3 2 7 9 11 12 11 10 11 9
14 8 5 6 6 5 5 4 4 4 3 4 4 4 3 1 2 3 3 4 4 4 5 7 4 3 4 2 3 8 3 4 4 3 2 7 9 10 10 10 10 10 9
13 9 7 6 6 6 4 3 2 2 2 2 4 4 3 2 1 1 1 0 1 4 3 4 3 2 2 2 3 3 4 4 3 3 4 8 10 10 10 11 10 9 8
13 11 9 7 6 6 3 3 4 3 3 2 3 3 3 2 1 1 1 1 1 2 2 2 2 2 3 1 3 4 5 4 3 3 4 6 7 11 11 10 9 9 9
13 12 11 9 7 6 5 3 3 4 3 4 4 3 3 3 3 1 2 2 1 1 2 3 2 2 1 2 3 5 4 5 5 3 2 11 8 9 10 9 9 9 8
14 13 12 11 9 6 5 6 4 3 4 4 4 4 4 3 4 3 3 2 0 1 2 2 2 2 3 3 2 5 5 5 5 4 3 4 11 10 10 9 8 8 7
14 14 13 12 9 8 7 5 4 4 4 4 5 6 5 5 5 4 2 1 1 1 2 2 2 2 3 2 3 4 4 5 5 5 3 1 2 9 9 10 9 8 7
14 14 13 11 11 8 6 5 4 5 4 4 4 4 6 5 5 4 4 2 1 0 1 2 2 2 2 2 2 3 3 4 5 4 3 3 3 3 6 9 8 8 8
15 14 13 11 11 9 7 5 5 6 4 5 4 4 6 6 5 4 3 2 3 0 0 1 1 1 1 2 3 3 2 2 4 4 4 4 4 3 3 6 9 7 8
14 14 14 11 9 9 5 4 2 3 2 3 4 4 6 5 6 4 3 4 3 2 1 1 0 2 2 2 4 3 2 1 1 2 4 4 3 3 3 3 1 3 6
14 14 15 15 11 7 4 4 4 4 2 1 4 7 6 5 5 6 4 4 4 3 3 2 2 2 3 2 4 3 3 3 2 0 1 3 4 4 3 2 2 1 1
16 17 16 16 14 11 9 7 3 4 3 2 2 5 6 6 6 4 6 4 4 4 4 3 1 2 2 1 4 2 2 4 3 2 1 2 4 2 3 4 3 3 3
17 18 17 18 17 15 14 3 2 3 2 3 1 2 5 6 6 6 6 5 5 3 4 3 3 4 2 1 1 5 2 2 1 2 1 2 2 2 2 3 3 4 3
17 16 17 17 17 15 12 10 8 7 7 4 4 3 4 7 7 6 6 6 5 3 4 3 3 2 3 3 2 2 2 4 3 2 3 2 3 4 5 3 4 5 4
18 17 17 18 16 17 14 14 10 7 4 3 3 6 5 5 6 7 6 6 6 4 4 4 3 3 2 3 3 2 2 3 3 3 3 3 2 4 4 4 4 4 5
19 17 17 18 17 17 15 14 14 13 7 5 4 4 4 4 6 6 6 5 5 5 5 5 4 4 4 1 2 2 3 4 3 3 2 3 3 4 4 4 5 5 4
Wind_Direction
203 140 133 126 125 122 113 113 111 110 112 113 114 122 126 128 130 129 126 127 125 127 121 110 101 104 107 103 107 103 101 100 100 100 101 103 108 104 99 98 99 98 94
142 146 138 127 127 123 119 112 113 113 112 111 115 122 125 127 125 126 126 128 126 126 115 106 100 102 108 110 111 112 112 112 111 104 106 124 118 110 105 103 98 96 95
141 142 140 131 129 122 118 115 115 111 111 113 113 114 119 125 124 122 122 122 123 123 116 115 109 109 109 116 117 115 118 115 110 108 105 81 108 112 108 109 102 102 99
140 141 137 135 131 124 118 120 120 114 115 112 114 117 119 111 114 121 124 124 122 125 122 116 111 110 114 111 116 119 123 117 112 92 67 83 109 116 116 108 107 104 104
130 133 145 136 134 129 125 123 116 115 116 113 122 113 106 116 114 115 118 120 116 112 97 100 103 112 111 111 108 110 118 145 124 96 79 87 97 116 113 114 110 110 109
132 141 142 141 136 136 128 126 120 120 123 125 115 116 115 114 115 117 118 115 114 111 103 102 101 107 109 110 106 105 107 118 120 106 98 98 98 120 116 121 119 114 111
135 146 144 143 138 139 134 131 126 126 125 120 113 114 113 116 117 119 114 109 108 105 101 98 98 106 111 117 109 109 110 117 108 107 96 91 101 121 115 118 114 119 115
140 139 150 143 143 140 138 138 134 133 126 118 108 109 114 118 119 115 113 113 112 106 97 94 91 98 108 116 100 106 132 129 116 112 109 107 120 120 126 121 119 116 109
142 136 142 143 151 151 147 144 140 135 130 125 122 112 117 120 121 118 115 116 115 108 105 104 97 91 100 103 105 106 133 130 106 105 129 122 135 130 127 124 118 121 118
141 133 137 135 137 149 148 149 145 139 137 134 128 125 120 114 124 124 123 124 120 114 115 112 105 106 99 107 98 115 126 127 110 103 70 109 140 134 133 125 125 119 117
142 144 136 138 145 151 148 158 152 150 146 141 131 122 104 79 88 56 145 133 131 127 105 80 79 107 124 110 121 121 121 122 116 100 104 156 141 135 132 130 132 114 120
164 162 157 154 151 154 163 162 150 160 127 122 127 117 123 146 142 122 267 165 141 98 83 67 80 103 96 127 126 125 134 146 123 129 137 157 138 133 129 126 123 130 132
166 167 174 165 158 171 164 169 143 150 142 139 147 172 167 179 290 128 213 49 64 68 36 50 55 63 94 173 148 145 134 130 133 139 169 170 147 142 135 135 137 128 121
167 175 179 172 170 187 169 172 163 163 166 173 190 187 168 190 170 93 192 212 166 96 84 35 11 26 68 117 183 170 165 134 138 128 175 167 159 152 151 149 135 133 140
171 177 183 178 181 188 188 162 178 180 181 175 179 195 178 194 156 156 241 220 152 123 109 33 50 10 14 70 186 181 143 134 147 146 159 176 171 164 158 157 157 162 161
175 179 180 189 189 177 192 177 182 187 187 178 192 195 210 218 162 190 225 217 142 108 91 49 19 66 15 27 121 155 138 159 124 131 173 188 182 174 172 166 176 176 176
179 177 183 187 190 186 192 183 183 198 198 190 199 186 194 227 189 188 191 266 48 96 78 137 75 72 39 53 94 95 141 113 130 161 176 217 164 187 190 181 189 192 202
178 177 183 188 191 193 184 181 194 200 203 207 193 186 184 214 217 173 172 147 205 172 47 5 73 104 135 128 95 136 133 130 144 160 166 188 169 193 204 202 206 202 215
179 176 181 188 189 193 193 176 199 202 207 192 169 175 184 206 199 171 164 158 149 118 322 290 334 197 131 111 153 131 160 161 166 162 167 185 185 202 217 220 209 212 224
183 179 179 186 185 191 189 155 168 166 199 170 179 177 175 205 189 168 144 135 142 171 151 142 186 37 40 94 81 86 125 187 204 198 165 159 191 214 233 226 262 247 232
185 183 184 185 188 178 172 171 176 182 182 184 187 172 176 192 198 168 147 154 169 148 154 147 105 97 36 86 88 8 31 25 231 285 249 161 183 211 220 224 189 223 291
187 191 188 193 184 187 195 198 176 158 165 168 176 175 177 183 202 190 158 168 172 145 144 153 168 103 65 74 120 93 43 337 7 27 63 263 209 219 214 222 199 207 218
184 191 190 193 192 192 193 142 74 78 71 114 224 171 188 187 187 205 186 166 175 163 168 175 166 142 139 41 109 133 99 211 344 350 38 237 240 247 255 241 230 235 225
191 185 190 195 195 193 179 185 187 191 192 189 162 187 189 189 190 199 201 178 178 169 188 192 165 150 122 149 38 58 87 140 150 4 328 291 229 233 229 230 236 243 220
188 186 187 189 194 192 188 191 192 199 194 155 146 165 195 196 200 197 199 191 182 180 202 193 169 162 158 145 159 150 69 53 82 122 232 285 308 236 232 223 217 235 228
193 187 186 185 193 193 189 195 193 197 175 161 178 173 190 196 208 209 191 192 198 186 178 200 199 173 175 168 171 166 162 162 189 149 146 238 222 266 236 216 216 224 221